This demonstration page uses our WeatherBlox Daily Observations layout. Learn more.

Left ArrowRight Arrow

Hourly Observations for July 28, 2015

Temp ( °F °C ) Dew Point ( °F °C ) Humidity (%) Winds ( mph kmh ) Pressure ( in mb ) Visibility ( mi km ) Precip ( " mm )
12:52 am 00:52 Clear 81 27.2 75 23.9 82 82 SSE 7 11 29.91 1013 10 16 0.00 0.00
1:52 am 01:52 Clear 80 26.7 75 23.9 85 85 SSE 9 15 29.91 1013 10 16 0.00 0.00
2:52 am 02:52 Clear 80 26.7 74 23.3 82 82 SSE 8 13 29.89 1012 10 16 0.00 0.00
3:52 am 03:52 Clear 79 26.1 73 22.8 82 82 SSE 8 13 29.88 1012 10 16 0.00 0.00
4:52 am 04:52 Clear 78 25.6 73 22.8 85 85 S 8 13 29.89 1012 10 16 0.00 0.00
5:52 am 05:52 Clear 77 25 73 22.8 88 88 S 7 11 29.91 1013 10 16 0.00 0.00
6:52 am 06:52 Sunny 77 25 73 22.8 88 88 S 7 11 29.92 1013 10 16 0.00 0.00
7:52 am 07:52 Sunny 80 26.7 72 22.2 76 76 S 9 15 29.93 1014 10 16 0.00 0.00
8:52 am 08:52 Sunny 84 28.9 73 22.8 70 70 SSW 10 17 29.94 1014 10 16 0.00 0.00
9:52 am 09:52 Sunny 88 31 73 23 62 62 SW 9 15 29.91 1013 10 16 0.00 0.00
10:52 am 10:52 Sunny 89 31.7 72 22.2 57 57 SW 12 19 29.96 1015 10 16 0.00 0.00
11:52 am 11:52 Sunny 90 32.2 73 22.8 58 58 SW 13 20 29.96 1015 10 16 0.00 0.00
12:52 pm 12:52 Mostly Sunny 91 32.8 73 22.8 56 56 WSW 9 15 29.96 1014 10 16 0.00 0.00
1:52 pm 13:52 Mostly Sunny 92 33.3 72 22.2 52 52 WSW 10 17 29.94 1014 10 16 0.00 0.00
2:52 pm 14:52 Sunny 92 33.3 72 22.2 52 52 SSW 13 20 29.93 1014 10 16 0.00 0.00
3:52 pm 15:52 Mostly Sunny 92 33.3 74 23.3 56 56 S 13 20 29.92 1013 10 16 0.00 0.00
4:52 pm 16:52 Mostly Sunny 92 33.3 72 22.2 52 52 S 13 20 29.91 1013 10 16 0.00 0.00
5:52 pm 17:52 Sunny 91 32.8 72 22.2 54 54 SSW 14 22 29.91 1013 10 16 0.00 0.00
6:52 pm 18:52 Sunny 90 32.2 72 22.2 56 56 SSW 10 17 29.90 1013 10 16 0.00 0.00
7:52 pm 19:52 Sunny 87 30.6 74 23.3 65 65 SSW 7 11 29.89 1012 10 16 0.00 0.00
8:52 pm 20:52 Clear 84 28.9 73 22.8 70 70 S 3 6 29.90 1013 10 16 0.00 0.00
9:52 pm 21:52 Clear 81 27.2 74 23.3 79 79 SE 6 9 29.92 1013 10 16 0.00 0.00
10:52 pm 22:52 Clear 79 26.1 74 23.3 85 85 S 3 6 29.95 1014 10 16 0.00 0.00
11:52 pm 23:52 Clear 80 26.7 74 23.3 82 82 Calm 29.96 1015 10 16 0.00 0.00

Powered by AerisWeather